GLT1 KLEX-KSBP

Flight info

Callsign GLT1
Flight time N/A
Altitude 43000
Route TRFWA IIU J8 STL J110 RSK J64 TBC J128 PGS J64 HEC J6 AVE BURGL
Aircraft C750/M-VGDW/C

Departure

Time 2026-04-15 06:26
Airport Blue Grass Airport (KLEX)

Arrival

Time N/A
Airport San Luis County Regional Airport (KSBP)
Time Latitude Longitude Altitude Speed Heading
2026-04-15 06:16 38.03347 -84.60091 1048 ft 0 kts 322°
2026-04-15 06:21 38.03358 -84.60102 1048 ft 6 kts 321°
2026-04-15 06:21 38.03409 -84.60145 1048 ft 8 kts 352°
2026-04-15 06:22 38.03442 -84.60091 1048 ft 9 kts 61°
2026-04-15 06:22 38.03479 -84.60022 1049 ft 12 kts 48°
2026-04-15 06:22 38.03536 -84.60015 1052 ft 13 kts 324°
2026-04-15 06:22 38.03620 -84.60088 1052 ft 14 kts 332°
2026-04-15 06:23 38.03708 -84.60114 1052 ft 12 kts 350°
2026-04-15 06:23 38.03780 -84.60098 1052 ft 10 kts 32°
2026-04-15 06:23 38.03830 -84.60052 1052 ft 8 kts 49°
2026-04-15 06:23 38.03874 -84.60003 1052 ft 13 kts 25°
2026-04-15 06:24 38.03953 -84.60001 1052 ft 10 kts 31°
2026-04-15 06:24 38.04012 -84.59932 1052 ft 15 kts 40°
2026-04-15 06:24 38.04090 -84.59845 1052 ft 11 kts 41°
2026-04-15 06:24 38.04147 -84.59829 1052 ft 8 kts 322°
2026-04-15 06:25 38.04185 -84.59884 1052 ft 8 kts 311°
2026-04-15 06:25 38.04189 -84.59920 1052 ft 0 kts 222°
2026-04-15 06:25 38.04185 -84.59926 1052 ft 12 kts 220°
2026-04-15 06:25 38.03868 -84.60278 1053 ft 107 kts 221°
2026-04-15 06:26 38.03168 -84.61060 1175 ft 145 kts 221°
2026-04-15 06:26 38.02385 -84.61902 1740 ft 151 kts 219°
2026-04-15 06:26 38.01596 -84.62758 2462 ft 148 kts 221°
2026-04-15 06:26 38.00775 -84.63637 2872 ft 166 kts 221°
2026-04-15 06:27 37.99801 -84.64632 3248 ft 189 kts 219°
2026-04-15 06:27 37.98787 -84.65652 4019 ft 189 kts 220°
2026-04-15 06:27 37.97706 -84.66729 4603 ft 204 kts 220°
2026-04-15 06:27 37.96599 -84.67815 5471 ft 199 kts 220°
2026-04-15 06:28 37.95435 -84.68936 5971 ft 218 kts 220°
2026-04-15 06:28 37.94240 -84.70114 6835 ft 222 kts 220°
2026-04-15 06:28 37.93042 -84.71379 7697 ft 227 kts 229°
2026-04-15 06:28 37.92344 -84.73283 7889 ft 255 kts 257°
2026-04-15 06:29 37.92333 -84.75565 8513 ft 268 kts 278°
2026-04-15 06:29 37.92842 -84.77841 9383 ft 270 kts 284°
2026-04-15 06:29 37.93408 -84.80142 10119 ft 276 kts 284°
2026-04-15 06:29 37.93946 -84.82546 10487 ft 295 kts 283°
2026-04-15 06:30 37.94506 -84.85147 10669 ft 315 kts 284°
2026-04-15 06:30 37.95112 -84.87900 10877 ft 333 kts 284°
2026-04-15 06:30 37.95756 -84.90784 11259 ft 343 kts 284°
2026-04-15 06:30 37.96400 -84.93700 11943 ft 344 kts 285°
2026-04-15 06:31 37.97037 -84.96618 12508 ft 345 kts 284°
2026-04-15 06:31 37.97687 -84.99567 13107 ft 348 kts 285°
2026-04-15 06:31 37.98341 -85.02496 13714 ft 352 kts 285°
2026-04-15 06:31 37.98999 -85.05482 14414 ft 353 kts 284°
2026-04-15 06:32 37.99652 -85.08488 14998 ft 354 kts 284°
2026-04-15 06:32 38.00314 -85.11512 15533 ft 358 kts 284°
2026-04-15 06:32 38.00988 -85.14556 16185 ft 357 kts 284°
2026-04-15 06:32 38.01654 -85.17587 16698 ft 360 kts 283°
2026-04-15 06:33 38.02320 -85.20668 17260 ft 363 kts 283°
2026-04-15 06:33 38.02995 -85.23772 17838 ft 366 kts 283°
2026-04-15 06:33 38.03679 -85.26896 18386 ft 369 kts 283°
2026-04-15 06:33 38.04355 -85.30002 18957 ft 370 kts 283°
2026-04-15 06:34 38.05043 -85.33171 19514 ft 374 kts 283°
2026-04-15 06:34 38.05737 -85.36369 20095 ft 376 kts 283°
2026-04-15 06:34 38.06435 -85.39591 20675 ft 379 kts 283°
2026-04-15 06:34 38.07134 -85.42829 21248 ft 382 kts 283°
2026-04-15 06:35 38.07834 -85.46087 21732 ft 384 kts 283°
2026-04-15 06:35 38.08546 -85.49378 22253 ft 388 kts 283°
2026-04-15 06:35 38.09262 -85.52685 22876 ft 389 kts 284°
2026-04-15 06:35 38.09977 -85.56013 23393 ft 393 kts 283°
2026-04-15 06:36 38.10642 -85.59348 23877 ft 395 kts 281°
2026-04-15 06:36 38.11239 -85.62775 24457 ft 398 kts 281°
2026-04-15 06:36 38.11845 -85.66254 25045 ft 400 kts 281°
2026-04-15 06:36 38.12449 -85.69663 25530 ft 402 kts 281°
2026-04-15 06:37 38.13066 -85.73139 26027 ft 405 kts 281°
2026-04-15 06:37 38.13678 -85.76640 26534 ft 407 kts 281°
2026-04-15 06:37 38.14290 -85.80155 27003 ft 409 kts 281°
2026-04-15 06:37 38.14911 -85.83702 27466 ft 411 kts 281°
2026-04-15 06:38 38.15534 -85.87262 27961 ft 414 kts 281°
2026-04-15 06:38 38.16158 -85.90845 28435 ft 415 kts 281°
2026-04-15 06:38 38.16782 -85.94433 28875 ft 418 kts 281°
2026-04-15 06:38 38.17409 -85.98045 29326 ft 419 kts 281°
2026-04-15 06:39 38.18037 -86.01679 29732 ft 421 kts 281°
2026-04-15 06:39 38.18667 -86.05320 30142 ft 423 kts 281°
2026-04-15 06:39 38.19299 -86.08979 30538 ft 425 kts 281°
2026-04-15 06:39 38.19932 -86.12655 30908 ft 427 kts 281°
2026-04-15 06:40 38.20564 -86.16345 31436 ft 425 kts 281°
2026-04-15 06:40 38.21191 -86.20001 32041 ft 421 kts 281°
2026-04-15 06:40 38.21806 -86.23586 32577 ft 419 kts 281°
2026-04-15 06:40 38.22423 -86.27201 33123 ft 417 kts 281°
2026-04-15 06:41 38.23037 -86.30803 33662 ft 414 kts 281°
2026-04-15 06:41 38.23645 -86.34377 34190 ft 412 kts 282°
2026-04-15 06:41 38.24247 -86.37928 34663 ft 411 kts 281°
2026-04-15 06:41 38.24850 -86.41485 35083 ft 411 kts 281°
2026-04-15 06:42 38.25452 -86.45036 35562 ft 410 kts 281°
2026-04-15 06:42 38.26050 -86.48576 36058 ft 409 kts 281°
2026-04-15 06:42 38.26644 -86.52108 36546 ft 407 kts 281°
2026-04-15 06:42 38.27235 -86.55631 37024 ft 405 kts 281°
2026-04-15 06:43 38.27813 -86.59071 37662 ft 398 kts 281°
2026-04-15 06:43 38.28389 -86.62504 38097 ft 396 kts 281°
2026-04-15 06:43 38.28963 -86.65940 38434 ft 397 kts 281°
2026-04-15 06:43 38.29536 -86.69377 38791 ft 396 kts 281°
2026-04-15 06:44 38.30107 -86.72805 39136 ft 396 kts 281°
2026-04-15 06:44 38.30678 -86.76236 39492 ft 395 kts 281°
2026-04-15 06:44 38.31245 -86.79653 39873 ft 394 kts 281°
2026-04-15 06:44 38.31621 -86.81921 40105 ft 394 kts 281°
2026-04-15 06:45 38.32185 -86.85332 40429 ft 394 kts 280°
2026-04-15 06:45 38.32748 -86.88746 40740 ft 394 kts 280°
2026-04-15 06:45 38.33311 -86.92159 41062 ft 394 kts 280°
2026-04-15 06:45 38.33872 -86.95572 41372 ft 393 kts 280°
2026-04-15 06:46 38.34433 -86.98992 41653 ft 394 kts 280°
2026-04-15 06:46 38.34985 -87.02360 41925 ft 394 kts 280°
2026-04-15 06:46 38.35545 -87.05786 42215 ft 394 kts 279°
2026-04-15 06:46 38.36102 -87.09197 42493 ft 394 kts 279°
2026-04-15 06:47 38.36659 -87.12622 42745 ft 394 kts 279°
2026-04-15 06:47 38.37213 -87.16032 42949 ft 392 kts 279°
2026-04-15 06:47 38.37769 -87.19465 42941 ft 399 kts 279°
2026-04-15 06:48 38.38908 -87.26511 42956 ft 411 kts 279°
2026-04-15 06:48 38.40076 -87.33764 42943 ft 424 kts 279°
2026-04-15 06:49 38.41271 -87.41217 42940 ft 435 kts 279°
2026-04-15 06:49 38.42491 -87.48858 42940 ft 443 kts 279°
2026-04-15 06:50 38.44339 -87.60492 42922 ft 453 kts 279°
2026-04-15 06:50 38.45590 -87.68416 42923 ft 457 kts 279°
2026-04-15 06:51 38.46845 -87.76405 42916 ft 460 kts 279°
2026-04-15 06:51 38.48102 -87.84439 42917 ft 461 kts 278°
2026-04-15 06:52 38.49345 -87.92425 42898 ft 461 kts 278°
2026-04-15 06:52 38.50588 -88.00451 42903 ft 460 kts 278°
2026-04-15 06:53 38.51826 -88.08488 42910 ft 462 kts 278°
2026-04-15 06:53 38.53062 -88.16537 42911 ft 461 kts 278°
2026-04-15 06:54 38.54289 -88.24581 42912 ft 461 kts 278°
2026-04-15 06:54 38.55510 -88.32616 42912 ft 461 kts 278°
2026-04-15 06:55 38.56719 -88.40612 42914 ft 461 kts 278°
2026-04-15 06:55 38.57931 -88.48668 42900 ft 461 kts 278°
2026-04-15 06:56 38.59138 -88.56724 42896 ft 461 kts 278°
2026-04-15 06:56 38.60341 -88.64803 42900 ft 461 kts 278°
2026-04-15 06:57 38.61529 -88.72816 42902 ft 462 kts 278°
2026-04-15 06:57 38.62721 -88.80894 42902 ft 462 kts 278°
2026-04-15 06:58 38.63909 -88.88986 42894 ft 462 kts 278°
2026-04-15 06:58 38.65087 -88.97055 42893 ft 461 kts 278°
2026-04-15 06:59 38.66251 -89.05063 42891 ft 461 kts 278°
2026-04-15 06:59 38.67418 -89.13140 42893 ft 461 kts 278°
2026-04-15 07:00 38.68583 -89.21240 42895 ft 462 kts 277°
2026-04-15 07:00 38.69741 -89.29327 42895 ft 462 kts 277°
2026-04-15 07:01 38.70893 -89.37421 42883 ft 462 kts 277°
2026-04-15 07:01 38.72032 -89.45459 42872 ft 462 kts 277°
2026-04-15 07:02 38.73174 -89.53563 42873 ft 462 kts 277°
2026-04-15 07:02 38.74312 -89.61683 42867 ft 462 kts 277°
2026-04-15 07:03 38.75440 -89.69777 42863 ft 461 kts 277°
2026-04-15 07:03 38.76558 -89.77836 42846 ft 462 kts 277°
2026-04-15 07:04 38.77677 -89.85947 42858 ft 461 kts 277°
2026-04-15 07:04 38.78791 -89.94061 42849 ft 462 kts 277°
2026-04-15 07:05 38.79899 -90.02176 42845 ft 462 kts 276°
2026-04-15 07:05 38.80999 -90.10284 42855 ft 462 kts 276°
2026-04-15 07:06 38.82089 -90.18354 42844 ft 460 kts 276°
2026-04-15 07:06 38.83178 -90.26461 42842 ft 461 kts 276°
2026-04-15 07:07 38.84261 -90.34570 42837 ft 461 kts 276°
2026-04-15 07:07 38.85340 -90.42698 42826 ft 460 kts 276°
2026-04-15 07:08 38.85632 -90.50830 42811 ft 455 kts 264°
2026-04-15 07:08 38.84702 -90.58788 42823 ft 454 kts 259°
2026-04-15 07:09 38.83684 -90.66789 42821 ft 453 kts 259°
2026-04-15 07:09 38.82635 -90.74760 42819 ft 453 kts 259°
2026-04-15 07:10 38.81596 -90.82728 42817 ft 452 kts 259°
2026-04-15 07:10 38.80547 -90.90667 42819 ft 452 kts 259°
2026-04-15 07:11 38.79497 -90.98611 42819 ft 451 kts 259°
2026-04-15 07:11 38.78439 -91.06541 42846 ft 451 kts 259°
2026-04-15 07:12 38.77385 -91.14430 42844 ft 451 kts 259°
2026-04-15 07:12 38.76318 -91.22346 42836 ft 450 kts 259°
2026-04-15 07:13 38.75249 -91.30249 42840 ft 449 kts 258°
2026-04-15 07:13 38.74177 -91.38130 42840 ft 449 kts 258°
2026-04-15 07:14 38.73101 -91.45996 42836 ft 448 kts 258°
2026-04-15 07:14 38.72027 -91.53819 42830 ft 448 kts 258°
2026-04-15 07:15 38.70940 -91.61686 42832 ft 448 kts 258°
2026-04-15 07:15 38.69850 -91.69529 42832 ft 447 kts 258°
2026-04-15 07:16 38.68754 -91.77369 42832 ft 447 kts 258°
2026-04-15 07:16 38.67632 -91.85212 42833 ft 448 kts 258°
2026-04-15 07:17 38.66521 -91.93007 42830 ft 446 kts 258°
2026-04-15 07:17 38.65395 -92.00829 42819 ft 446 kts 258°
2026-04-15 07:18 38.64275 -92.08599 42818 ft 443 kts 257°
2026-04-15 07:18 38.63148 -92.16370 42820 ft 444 kts 258°
2026-04-15 07:19 38.62029 -92.24158 42819 ft 444 kts 257°
2026-04-15 07:19 38.60907 -92.31879 42821 ft 444 kts 257°
2026-04-15 07:20 38.59776 -92.39642 42821 ft 444 kts 257°
2026-04-15 07:20 38.58638 -92.47410 42820 ft 444 kts 257°
2026-04-15 07:21 38.57496 -92.55170 42820 ft 444 kts 257°
2026-04-15 07:21 38.56357 -92.62868 42821 ft 443 kts 257°
2026-04-15 07:22 38.55205 -92.70618 42822 ft 444 kts 257°
2026-04-15 07:22 38.54049 -92.78365 42811 ft 444 kts 257°
2026-04-15 07:23 38.52888 -92.86106 42809 ft 443 kts 257°
2026-04-15 07:23 38.51722 -92.93841 42810 ft 443 kts 257°
2026-04-15 07:24 38.50551 -93.01579 42808 ft 443 kts 257°
2026-04-15 07:24 38.49381 -93.09266 42810 ft 443 kts 257°
2026-04-15 07:25 38.48203 -93.16974 42810 ft 443 kts 257°
2026-04-15 07:25 38.47013 -93.24727 42812 ft 444 kts 257°
2026-04-15 07:26 38.45830 -93.32394 42812 ft 443 kts 257°
2026-04-15 07:26 38.44635 -93.40108 42811 ft 444 kts 257°
2026-04-15 07:27 38.43433 -93.47831 42814 ft 444 kts 256°
2026-04-15 07:27 38.42223 -93.55567 42798 ft 444 kts 256°
2026-04-15 07:28 38.41010 -93.63295 42789 ft 445 kts 256°
2026-04-15 07:28 38.39790 -93.71019 42781 ft 445 kts 257°
2026-04-15 07:29 38.38564 -93.78758 42782 ft 445 kts 256°
2026-04-15 07:29 38.37340 -93.86447 42784 ft 445 kts 256°
2026-04-15 07:30 38.36095 -93.94231 42783 ft 446 kts 256°
2026-04-15 07:30 38.34858 -94.01932 42786 ft 446 kts 256°
2026-04-15 07:31 38.33612 -94.09653 42791 ft 445 kts 256°
2026-04-15 07:31 38.32363 -94.17364 42790 ft 444 kts 256°
2026-04-15 07:32 38.31320 -94.23771 42790 ft 445 kts 256°
2026-04-15 07:32 38.30059 -94.31495 42791 ft 445 kts 256°
2026-04-15 07:33 38.28797 -94.39185 42822 ft 443 kts 256°
2026-04-15 07:33 38.27539 -94.46873 42843 ft 445 kts 257°
2026-04-15 07:34 38.27036 -94.54740 42853 ft 447 kts 264°